Location: Hilton Head Island
(32.2163°N, 80.7526°W)
Time: 13:04:57
(UTC-05:00)

Courier 1B - Visible Passes

Search period start: 18 February 2026 00:00
Search period end: 28 February 2026 00:00
Orbit: 962 x 1208 km, 28.3° (Epoch: 18 February)

Date Brightness Start Highest point End Pass type
(mag) Time Alt. Az. Time Alt. Az. Time Alt. Az.
18 Feb 8.4 19:12:30 10° SW 19:19:14 44° SSE 19:23:57 21° ESE visible
18 Feb 8.6 21:05:53 10° WSW 21:10:50 44° WSW 21:10:50 44° WSW visible
19 Feb 7.9 20:12:04 10° WSW 20:19:13 62° S 20:20:22 56° SE visible
19 Feb 10.0 22:05:58 10° W 22:07:15 16° W 22:07:15 16° W visible
20 Feb 8.1 19:18:20 10° WSW 19:25:16 56° SSE 19:29:53 23° E visible
20 Feb 8.7 21:12:03 10° W 21:16:46 42° WSW 21:16:46 42° WSW visible
21 Feb 8.3 18:24:43 10° WSW 18:31:21 49° SSE 18:38:25 10° E visible
21 Feb 7.8 20:18:12 10° W 20:25:20 66° S 20:26:17 61° SE visible
21 Feb 10.1 22:12:14 10° W 22:13:10 14° W 22:13:10 14° W visible
22 Feb 7.9 19:24:24 10° WSW 19:31:22 64° S 19:35:48 26° ESE visible
22 Feb 8.9 21:18:17 10° W 21:22:41 38° WSW 21:22:41 38° WSW visible
23 Feb 8.1 18:30:41 10° WSW 18:37:25 60° S 18:44:38 10° E visible
23 Feb 7.8 20:24:25 10° W 20:31:28 63° S 20:32:11 60° SSE visible
23 Feb 10.3 22:18:37 10° W 22:19:04 12° W 22:19:04 12° W visible
24 Feb 7.9 19:30:36 10° W 19:37:30 65° S 19:41:42 27° ESE visible
24 Feb 9.1 21:24:37 10° W 21:28:36 32° WSW 21:28:36 32° WSW visible
25 Feb 8.0 18:36:50 10° WSW 18:43:34 65° S 18:50:46 10° E visible
25 Feb 8.0 20:30:43 10° W 20:37:35 53° SSW 20:38:08 52° S visible
26 Feb 8.0 19:36:52 10° W 19:43:39 59° S 19:47:42 27° ESE visible
26 Feb 9.4 21:31:09 10° W 21:34:35 25° WSW 21:34:35 25° WSW visible
27 Feb 8.0 18:43:04 10° W 18:49:44 62° S 18:56:51 10° ESE visible
27 Feb 8.4 20:37:08 10° W 20:43:37 40° SSW 20:44:11 40° S visible
